Hourly Data Report for July 03, 2016

TORONTO CITY
ONTARIO

43°40'00.000" N
79°24'00.000" W
112.50 m
6158355
71508
XTO

Download Data

Hourly Data (July 2016)
Hourly Data Report for July 3, 2016
TIME
LST
Temp Definition
°C
Dew Point Definition
°C
Rel Hum Definition
%
Precip. Amount Definition
mm

Wind Dir Definition
10's deg

Wind Spd Definition
km/h
Visibility Definition
km
Stn Press Definition
kPa
Hmdx Definition


Wind Chill Definition


Weather Definition


00:00 18.4 8.0 51 0.0 LegendMM LegendMM   100.49     LegendNANA
01:00 17.8 8.1 53 0.0 LegendMM LegendMM   100.50     LegendNANA
02:00 17.2 8.5 57 0.0 LegendMM LegendMM   100.49     LegendNANA
03:00 15.8 8.6 63 0.0 LegendMM LegendMM   100.50     LegendNANA
04:00 15.4 8.7 64 0.0 LegendMM LegendMM   100.47     LegendNANA
05:00 15.5 8.6 64 0.0 LegendMM LegendMM   100.48     LegendNANA
06:00 15.6 9.6 68 0.0 LegendMM LegendMM   100.52     LegendNANA
07:00 19.3 8.9 51 0.0 LegendMM LegendMM   100.55     LegendNANA
08:00 22.0 9.9 46 0.0 LegendMM LegendMM   100.57     LegendNANA
09:00 24.0 9.2 39 0.0 LegendMM LegendMM   100.55 25   LegendNANA
10:00 24.9 7.5 33 0.0 LegendMM LegendMM   100.53 25   LegendNANA
11:00 24.8 9.4 37 0.0 LegendMM LegendMM   100.53 26   LegendNANA
12:00 25.3 9.1 36 0.0 LegendMM LegendMM   100.51 26   LegendNANA
13:00 25.2 9.2 37 0.0 LegendMM LegendMM   100.46 26   LegendNANA
14:00 26.8 8.9 32 0.0 LegendMM LegendMM   100.39 28   LegendNANA
15:00 28.0 6.8 26 0.0 LegendMM LegendMM   100.34 28   LegendNANA
16:00 27.7 7.0 27 0.0 LegendMM LegendMM   100.31 28   LegendNANA
17:00 26.1 7.8 31 0.0 LegendMM LegendMM   100.29 26   LegendNANA
18:00 25.3 7.2 32 0.0 LegendMM LegendMM   100.27 25   LegendNANA
19:00 24.5 9.2 38 0.0 LegendMM LegendMM   100.27 25   LegendNANA
20:00 25.0 7.1 32 0.0 LegendMM LegendMM   100.26 25   LegendNANA
21:00 23.6 8.0 37 0.0 LegendMM LegendMM   100.30     LegendNANA
22:00 22.9 8.2 39 0.0 LegendMM LegendMM   100.33     LegendNANA
23:00 20.5 8.8 47 0.0 LegendMM LegendMM   100.37     LegendNANA

Notes on Data Quality.

Legend

  • E = Estimated
  • M = Missing
  • NA = Not Available*
  • [empty] = Indicates an unobserved value
Date modified: